SCP
0 0 0 0 0 0 0 0 0 0 0 0 0 0 0 0 0 0 0 0 0 0 0 0 0 0 0 0 0 0 0 0 0 0 0 0 0 0 0 0 0 0 0 0 0 0 0 0 0 0 0 0 0 0
0 0 0 0 0 0 0 0 0 0 0 0 0 0 0 0 0 0 0 0 0 0 0 0 0 0 0 0 0 0 0 0 0 0 0 0 0 0 0 0 0 0 0 0 0 0 0 0 0 0 -0 1 0 0
0 0 0 0 0 0 0 0 0 0 0 0 0 0 0 0 0 0 0 0 0 0 0 0 0 0 0 0 0 0 0 0 0 1 0 0 0 0 0 0 0 0 0 0 0 0 0 0 0 0 0 0 0 0
0 0 0 0 0 0 0 0 0 0 0 0 0 0 0 0 0 0 0 0 0 0 0 0 0 0 0 0 0 0 0 0 0 0 0 0 0 0 0 0 0 0 0 0 0 0 0 0 0 0 0 0 0 0
0 0 0 0 0 0 0 0 0 0 0 0 0 0 0 0 0 0 0 0 0 0 0 0 0 0 0 0 0 0 0 0 0 0 0 0 0 0 0 0 0 0 0 0 0 0 0 1 0 0 1 0 0 0
0 0 0 0 0 0 0 0 0 0 0 0 0 0 0 0 0 0 0 0 0 0 0 0 0 0 0 0 0 0 0 0 0 0 0 0 0 0 0 0 0 0 0 0 0 0 0 0 0 0 0 0 0 0
0 0 0 0 0 0 0 0 0 0 0 0 0 0 0 0 0 0 0 0 0 0 0 0 0 0 0 0 0 0 0 0 0 0 0 0 0 0 0 0 0 0 0 0 0 0 0 0 0 0 0 0 0 0
0 0 0 0 0 0 0 0 0 0 0 0 0 0 0 0 0 0 0 0 0 0 0 0 0 0 0 0 0 0 0 0 0 0 0 0 0 0 0 0 0 0 0 0 0 0 0 0 0 0 0 0 0 0
0 0 0 0 0 0 0 0 0 0 0 0 0 0 0 0 0 0 0 0 0 0 0 0 0 0 0 0 0 0 0 0 0 0 0 0 0 0 0 0 0 0 0 0 0 0 0 0 0 0 0 0 0 0
0 0 0 0 0 0 0 0 0 0 0 0 0 0 0 0 0 0 0 0 0 0 0 0 0 0 0 0 0 0 0 0 0 0 0 0 0 0 0 0 0 0 0 0 0 0 0 0 0 0 0 0 0 0
0 0 0 0 0 0 0 0 0 0 0 0 0 0 0 0 0 0 0 0 0 0 0 0 0 0 0 0 0 0 0 0 0 0 0 0 0 0 0 0 0 0 0 0 0 0 0 0 0 0 0 0 0 0
0 0 0 0 0 0 0 0 0 0 0 0 0 0 0 0 0 0 0 0 0 0 0 0 0 0 0 0 0 0 0 0 0 0 0 0 0 0 0 0 0 0 0 0 0 0 0 0 0 0 0 0 0 0
0 0 0 0 0 0 0 0 0 0 0 0 0 0 0 0 0 0 0 0 0 0 0 0 0 0 0 0 0 0 0 0 0 0 0 0 0 0 0 0 0 0 0 0 0 0 0 0 0 0 0 0 0 0
0 0 0 0 0 0 0 0 0 0 0 0 0 0 0 0 0 0 0 0 0 0 0 0 0 0 0 0 0 0 0 0 0 0 0 0 0 0 0 0 0 0 0 0 0 0 0 0 0 0 0 0 0 0
0 0 0 0 0 0 0 0 0 0 0 0 0 0 0 0 0 0 0 0 0 0 0 0 0 0 0 0 0 0 0 0 0 0 0 0 1 0 0 0 0 0 0 0 0 0 0 0 0 0 0 0 0 0
0 0 0 0 0 0 0 0 0 0 0 0 0 0 0 0 0 0 0 0 0 0 0 0 0 0 0 0 0 0 0 0 0 0 0 0 0 0 0 0 0 0 0 0 0 0 0 0 0 0 0 0 0 0
-0 0 0 0 0 0 0 0 0 0 0 0 0 0 0 0 0 0 0 0 0 0 0 0 0 0 0 0 0 0 0 0 0 0 0 0 0 0 0 0 0 0 0 0 0 0 0 0 0 0 0 0 0 0
0 0 0 0 0 0 0 0 0 0 0 0 0 0 0 0 0 0 0 0 0 0 0 0 0 0 0 0 0 0 0 0 0 0 0 0 0 0 0 0 0 0 0 0 0 0 0 0 0 0 0 0 0 0
0 0 0 0 0 0 0 0 0 0 0 0 0 0 0 0 0 0 0 0 0 0 0 0 0 0 0 0 0 0 0 0 0 0 0 0 0 0 0 0 0 0 0 0 0 0 0 0 0 0 0 0 0 0
0 0 0 -0 0 0 0 0 0 0 0 0 0 0 0 0 0 0 0 0 0 0 0 0 0 0 0 0 0 0 0 0 0 0 0 0 0 0 0 0 0 0 0 0 -0 0 0 0 0 0 0 0 0 0
0 0 0 0 0 0 0 0 0 0 0 0 0 0 0 -0 0 0 0 0 0 0 0 0 0 0 0 0 0 0 0 0 0 0 0 0 0 0 0 0 0 0 0 0 0 0 0 0 0 0 0 0 0 0
0 0 0 0 0 0 0 0 0 0 0 0 0 -0 0 0 -0 -0 0 0 0 0 0 0 0 0 0 0 0 0 0 0 0 0 0 0 0 0 0 0 0 0 0 0 0 0 0 0 0 0 0 0 0 0
0 0 0 0 0 0 0 0 0 0 0 0 -0 -0 -0 -0 -0 -0 -0 0 0 0 0 0 0 0 0 0 0 0 0 0 0 0 0 0 0 0 0 0 0 0 0 0 0 0 0 0 0 0 0 0 0 0
0 0 0 0 0 0 0 -0 -0 0 0 -0 -0 -0 0 0 0 0 0 0 -0 0 0 0 0 0 0 0 0 0 0 0 0 0 0 0 0 0 0 0 0 0 0 0 0 0 0 0 0 0 0 0 0 0
0 0 0 0 0 0 -0 -0 -0 -0 0 0 -0 0 0 -0 -0 0 0 -0 0 0 0 0 0 0 0 0 0 0 0 0 0 0 0 0 0 0 0 0 0 0 0 0 0 0 0 0 0 0 0 0 0 0
0 0 0 0 0 -0 -0 -0 -0 -0 0 0 -0 0 -0 0 0 0 0 0 0 0 0 0 0 0 0 0 0 0 0 0 0 0 0 0 0 0 0 0 -0 -0 0 0 0 0 0 0 0 0 0 0 0 0
0 0 0 0 0 0 0 0 -0 -0 -0 -0 -0 -0 0 0 0 0 0 0 0 -0 0 0 0 0 0 0 0 0 0 0 0 0 0 0 0 0 0 0 -0 0 0 0 0 0 0 0 0 0 0 0 0 0
0 0 0 0 0 0 -0 -0 -0 -0 0 0 0 0 0 0 0 0 0 0 0 0 0 0 0 0 -0 0 0 0 -0 0 0 0 0 0 0 0 0 0 0 0 0 0 0 0 0 0 0 0 0 0 0 0
0 0 0 0 0 0 0 0 0 0 0 0 0 0 0 0 0 0 0 0 -0 -0 -0 -0 -0 -0 -0 -0 -0 0 -0 -0 -0 -0 0 -0 0 0 0 0 0 0 0 0 0 0 -0 -0 0 0 0 0 0 0
0 0 0 0 0 0 0 0 0 0 0 0 0 0 0 -0 -0 0 0 0 0 0 0 0 0 0 0 0 0 -0 0 0 0 0 0 0 0 0 0 0 0 0 0 0 0 0 0 0 -0 -0 0 -0 -0 0
0 0 0 0 0 0 0 0 0 0 0 0 -0 0 0 0 0 0 0 0 0 0 0 0 0 0 0 0 0 0 0 0 -0 -0 0 0 -0 -0 0 0 0 0 0 0 0 0 0 0 0 0 0 0 0 0
0 0 0 0 0 0 0 0 0 0 0 0 0 0 0 0 0 0 0 0 0 0 0 0 0 0 0 -0 0 -0 0 -0 -0 -0 0 0 0 -0 0 0 0 0 0 0 0 0 0 0 0 0 0 0 0 0
0 0 0 0 0 0 0 0 0 0 0 0 0 0 0 0 0 0 0 0 0 0 0 0 0 -0 0 -0 0 0 0 -0 -0 0 0 0 0 0 -0 0 0 0 0 0 0 0 0 0 0 0 0 0 0 0
Wind_Speed_500mb
23 23 24 27 30 30 29 28 27 24 22 20 17 13 11 10 15 22 4 13 6 18 7 8 8 12 18 15 16 9 5 10 11 19 22 23 25 28 27 26 14 19 14 12 10 9 16 11 14 26 14 15 18 22
22 20 17 20 26 28 28 28 27 25 22 20 18 15 12 10 13 17 2 17 19 11 11 10 7 7 2 7 14 9 9 6 15 10 17 17 23 22 23 21 14 1 14 13 16 14 30 29 33 26 41 20 25 18
28 24 19 16 17 23 27 27 26 24 21 20 17 16 14 14 16 21 7 11 4 13 24 28 16 16 15 12 8 9 5 10 3 9 16 9 13 11 16 19 22 19 18 6 7 16 15 29 21 29 23 19 10 24
27 25 22 18 16 19 25 26 26 23 21 19 18 16 15 15 17 20 8 10 5 10 12 9 17 16 12 15 16 16 15 13 14 13 19 12 17 23 18 23 22 26 32 19 19 15 17 18 14 24 26 29 28 29
29 27 27 23 18 16 22 22 22 22 20 19 18 16 15 15 16 19 9 7 6 5 12 3 7 16 17 12 15 16 15 14 17 19 18 15 28 25 29 27 20 30 18 16 20 33 23 30 19 21 22 27 33 40
25 28 27 25 22 19 18 18 18 19 18 18 16 16 16 15 14 10 8 5 5 4 9 6 13 17 17 15 15 17 19 20 24 25 22 31 34 20 11 20 30 30 23 23 26 33 31 32 38 35 37 41 44 48
27 29 28 23 23 21 20 17 15 16 15 14 14 14 16 18 23 10 2 11 12 14 7 9 9 19 21 18 19 20 21 23 21 27 37 37 35 29 20 24 37 37 34 34 39 41 40 39 43 45 45 44 43 44
33 30 26 23 21 20 17 16 15 14 14 13 13 11 13 15 14 9 12 5 12 6 10 8 5 12 23 21 22 24 24 24 18 24 18 22 29 35 18 27 29 29 31 24 22 22 29 31 33 40 43 47 48 50
33 28 29 28 24 20 18 17 17 15 15 16 17 16 18 14 7 7 12 12 11 6 10 12 13 11 22 27 27 23 17 14 24 25 32 20 18 14 13 30 38 29 24 16 26 35 36 34 32 29 33 39 45 48
38 44 30 29 28 23 19 20 19 18 19 22 27 6 9 9 9 3 3 5 8 11 11 11 25 10 21 22 20 7 14 11 11 19 25 21 23 37 36 35 30 21 12 16 22 26 29 32 34 38 39 39 45 50
27 23 45 35 27 20 22 22 20 19 24 20 4 4 3 9 8 5 9 11 13 9 16 26 34 15 12 9 14 21 5 5 14 21 20 13 17 29 57 41 19 4 6 11 16 21 24 29 35 39 46 43 45 49
33 28 33 31 27 27 23 22 24 25 6 7 13 10 11 2 5 7 7 9 11 10 15 25 32 21 6 8 6 3 5 6 11 9 7 16 11 20 16 15 10 8 7 9 15 21 27 33 37 42 47 55 41 48
29 30 31 35 28 25 24 27 27 20 18 16 4 7 7 6 4 9 13 10 8 8 9 17 9 8 8 3 5 6 11 10 15 10 20 14 23 18 16 10 8 5 6 10 18 25 30 35 38 41 48 50 47 49
28 27 25 24 33 30 31 31 24 23 12 5 6 0 6 8 11 12 16 10 14 27 24 26 21 8 14 14 11 9 9 8 13 13 23 16 35 31 22 12 5 4 9 15 20 25 30 34 40 45 49 50 48 45
26 22 31 33 26 34 35 30 33 36 13 9 10 10 14 24 20 4 9 4 2 2 17 23 19 17 16 9 10 10 9 12 10 20 17 24 37 30 20 10 2 4 10 16 21 26 30 37 41 46 49 54 50 45
28 26 23 30 36 31 31 30 36 18 4 7 11 11 19 23 28 16 10 15 4 7 4 10 4 7 12 8 17 19 16 8 3 23 29 31 31 23 16 9 4 4 11 19 22 28 32 39 44 48 51 45 39 39
25 16 27 27 32 29 34 24 18 11 9 7 12 25 14 11 11 15 20 15 18 20 13 5 4 10 12 16 33 10 20 2 16 17 12 19 21 19 13 6 1 8 14 20 26 30 33 37 43 40 43 43 39 27
10 18 29 30 29 30 31 12 8 9 8 17 22 24 24 28 23 16 9 10 23 24 17 7 10 11 10 15 13 9 23 18 7 15 21 19 12 11 8 7 11 16 20 24 30 33 32 35 37 38 38 33 27 30
27 19 29 29 27 20 15 11 7 6 20 16 26 24 21 19 25 27 15 13 21 20 10 11 10 13 19 33 21 21 31 24 22 18 6 12 12 12 13 13 15 21 19 28 39 37 36 22 32 37 33 32 27 32
24 19 31 31 9 2 6 6 8 8 9 11 20 22 26 28 26 27 28 30 29 29 28 18 26 36 35 29 30 30 33 35 37 35 21 28 18 19 19 19 22 24 30 39 41 35 34 35 27 30 37 36 37 31
23 23 20 16 3 4 3 4 8 9 14 14 16 15 21 21 27 28 32 34 41 42 38 45 48 54 53 50 46 45 47 42 41 41 39 36 27 29 27 28 29 29 35 48 45 40 43 23 23 43 41 34 25 31
21 25 14 7 3 3 6 6 6 7 9 16 24 24 22 24 28 34 36 42 46 48 50 51 52 53 53 52 52 53 51 50 48 50 53 53 50 47 47 47 48 51 49 49 42 44 30 28 47 34 18 15 25 31
19 18 5 5 2 4 7 4 5 7 8 9 12 11 13 24 33 33 40 45 53 59 59 62 63 61 59 55 53 52 50 49 53 53 51 50 49 48 47 46 45 49 51 53 54 35 26 34 26 2 17 26 24 26
12 8 5 5 8 7 2 4 5 10 12 18 11 11 18 31 33 37 22 42 45 43 41 40 41 49 53 57 60 58 56 60 63 61 59 55 54 52 49 47 48 48 48 55 39 21 23 21 5 19 20 23 17 15
3 5 7 8 10 5 8 9 17 11 12 14 12 19 10 11 9 21 30 42 29 13 16 20 23 27 32 33 38 43 39 46 45 46 53 61 60 57 55 52 48 47 49 44 32 24 21 10 22 21 28 23 20 22
4 10 8 9 17 10 8 8 2 9 16 16 10 11 13 13 9 12 10 15 12 22 40 48 44 43 45 42 45 47 46 36 31 35 48 49 53 56 52 49 44 46 45 42 37 34 24 30 37 40 35 27 18 20
7 10 16 19 15 12 14 22 29 26 19 9 10 9 5 7 9 2 12 20 45 58 48 50 46 45 47 54 53 50 48 44 48 51 48 40 45 43 52 50 46 44 37 32 37 33 33 45 46 37 39 23 14 17
14 13 17 19 17 21 19 23 12 11 8 7 5 3 6 7 7 19 37 56 47 47 57 60 55 55 56 60 54 51 46 39 39 43 45 44 48 40 50 43 43 34 34 32 23 10 31 47 48 54 28 23 19 20
10 14 21 28 24 24 17 7 7 10 14 6 4 6 8 10 40 49 39 36 39 35 38 37 26 18 19 23 25 36 31 29 40 43 47 47 42 43 43 49 40 34 29 29 28 32 28 30 49 43 33 28 20 21
18 15 16 13 20 11 13 11 20 26 26 27 9 16 24 33 24 27 33 38 41 38 29 26 23 27 30 23 18 20 26 29 28 32 39 31 34 35 34 40 43 35 33 36 37 42 53 54 58 55 43 37 32 24
13 12 11 13 14 22 27 31 30 26 6 6 19 26 29 28 30 32 45 52 50 37 31 27 18 21 21 20 17 18 21 23 12 4 5 10 19 33 29 32 35 28 24 23 22 40 47 56 45 32 29 33 27 24
7 9 9 11 18 25 31 18 5 6 7 9 15 30 33 16 13 28 52 67 69 47 23 21 27 10 9 11 9 17 14 17 18 22 25 15 8 12 17 20 20 13 23 44 47 46 40 36 35 34 32 26 24 21
13 17 17 18 13 12 27 11 3 12 13 7 14 23 23 24 13 31 60 73 70 64 33 21 23 23 21 19 16 13 8 13 17 19 25 24 22 15 18 27 27 39 46 40 36 25 36 33 32 29 28 26 23 26
Wind_Direction_500mb
209 214 221 225 223 220 218 220 223 226 227 232 226 223 232 222 199 189 225 259 192 265 297 341 317 323 307 279 270 24 209 170 256 247 250 257 259 265 275 282 152 181 214 232 224 217 265 69 38 321 5 346 319 326
209 214 217 222 217 213 211 211 216 219 222 226 229 216 210 209 185 169 59 312 228 240 354 286 261 272 357 11 330 299 321 336 3 253 243 260 268 281 295 288 302 134 299 151 181 239 222 234 201 226 252 321 309 304
212 210 214 213 211 207 205 206 210 215 219 224 225 227 208 200 188 179 115 326 302 262 268 246 255 246 238 252 285 296 190 10 38 352 318 305 291 300 270 280 313 320 140 202 199 242 312 226 294 33 26 11 339 303
198 200 203 204 210 206 193 200 208 211 216 223 224 222 222 204 199 200 136 296 314 298 271 158 200 203 252 233 237 248 277 310 310 305 302 290 289 303 293 299 296 295 319 312 303 265 289 273 55 28 17 351 324 327
202 206 201 199 204 210 203 205 205 206 212 220 225 221 213 213 201 197 186 278 293 277 320 131 206 226 212 229 228 232 238 256 264 262 250 259 268 282 284 292 283 295 322 320 315 329 328 335 326 328 325 324 319 309
208 198 196 195 199 198 191 197 202 203 208 215 218 217 209 199 187 159 204 232 236 277 289 261 167 175 208 218 221 216 224 236 239 248 254 257 262 285 268 259 267 270 298 327 334 329 323 317 316 316 310 311 310 312
192 189 189 196 192 192 198 199 196 196 201 204 204 205 200 192 179 225 319 212 210 172 238 253 232 187 206 210 220 217 218 230 236 246 239 250 261 242 247 257 272 291 296 305 305 312 312 309 309 307 307 303 306 306
190 191 194 185 182 184 193 189 186 189 185 177 178 179 181 183 199 224 256 285 185 182 233 258 200 163 186 211 227 208 216 210 223 237 251 244 243 244 254 259 263 271 276 280 285 308 317 313 309 310 314 315 313 311
201 197 196 188 191 183 176 177 173 175 168 153 150 139 131 145 193 181 257 210 181 225 280 220 241 197 168 218 221 185 222 231 228 225 230 244 239 233 242 244 250 250 266 312 314 311 305 303 303 313 317 316 316 319
196 194 197 183 177 173 175 168 160 159 153 146 138 93 170 175 221 181 84 175 212 223 238 260 249 257 192 200 203 227 193 237 261 221 225 227 240 250 247 251 254 271 299 309 303 304 317 320 313 310 307 310 316 316
198 196 181 175 170 177 178 169 161 149 144 140 150 91 135 160 131 211 204 215 198 230 215 225 242 272 188 269 215 203 287 222 253 242 249 224 239 248 224 229 223 142 256 276 287 294 302 306 308 311 308 309 311 319
194 166 166 178 191 193 184 169 158 137 145 159 117 103 120 128 207 188 235 211 220 223 194 207 213 216 66 25 294 59 234 260 253 282 218 237 238 123 132 141 152 186 240 279 295 304 307 309 311 310 308 306 312 315
171 172 183 187 183 182 174 168 160 149 144 139 110 154 182 182 164 213 197 207 201 209 162 165 122 161 113 212 261 262 208 251 284 249 238 229 122 145 141 162 181 227 276 309 307 309 311 312 315 320 317 306 310 313
175 171 173 180 184 185 185 188 177 163 129 137 116 118 235 197 236 206 246 234 258 230 171 167 154 175 211 177 222 224 240 294 249 230 227 231 175 172 163 175 201 288 323 318 321 320 320 325 321 319 317 313 306 309
172 175 186 187 180 178 184 164 175 166 167 182 188 211 216 229 237 329 318 190 207 323 177 181 169 182 193 218 213 233 222 218 221 243 245 203 132 143 156 155 207 316 332 334 329 327 331 331 325 321 317 312 306 301
161 157 161 178 184 178 169 164 174 182 213 217 219 249 244 221 232 219 234 250 193 260 198 109 240 226 209 232 208 207 222 247 309 8 107 122 132 139 145 145 131 347 344 333 330 330 331 336 332 324 317 323 305 296
166 165 172 161 176 178 170 166 180 194 228 219 227 232 249 277 251 261 259 255 220 210 225 212 256 223 285 234 236 237 236 276 355 98 116 122 138 144 146 159 260 335 328 330 330 326 328 336 330 325 330 325 317 318
135 171 174 166 164 161 171 167 184 202 234 238 252 245 247 254 262 254 233 219 223 216 208 245 310 234 240 232 224 330 328 122 282 228 201 157 180 188 219 263 292 306 311 309 315 315 315 331 333 325 329 325 307 311
148 156 173 187 193 160 176 204 204 233 234 242 235 239 229 238 239 242 241 239 234 234 246 229 209 234 240 265 274 294 303 308 355 10 238 195 212 255 264 271 286 297 310 310 304 302 309 320 327 319 311 307 290 302
128 128 150 144 116 118 175 176 201 248 271 242 238 230 235 239 237 232 234 239 240 233 233 242 257 259 271 280 286 287 280 282 273 272 277 288 257 255 264 275 279 301 309 302 300 300 308 312 316 315 309 293 291 272
127 140 145 148 224 274 284 210 216 265 308 294 282 248 244 243 230 237 241 231 227 239 249 247 250 255 263 268 269 275 284 289 286 289 293 292 289 279 274 280 296 291 292 293 298 303 306 320 317 318 309 297 269 231
155 149 146 171 331 275 272 250 263 289 272 271 282 263 252 252 252 243 235 228 234 239 238 244 250 254 256 255 254 254 257 261 267 270 274 277 276 272 271 272 276 277 279 284 289 298 306 305 322 321 300 238 187 164
155 162 150 189 280 274 273 295 287 275 268 279 280 270 264 265 261 255 249 244 242 241 238 236 240 242 247 257 260 259 260 263 262 258 258 260 263 265 268 269 271 274 274 272 277 287 289 323 339 348 161 145 143 144
111 153 209 211 220 253 200 198 225 279 278 281 274 279 290 290 287 283 274 269 265 266 261 259 256 254 253 249 249 250 250 246 245 249 252 256 255 256 259 263 265 268 271 274 270 257 285 326 203 159 154 157 181 197
239 204 187 225 231 217 239 232 201 215 255 268 293 283 271 292 281 282 277 276 288 326 355 326 299 288 293 289 279 269 258 250 255 266 256 241 243 249 254 258 261 262 263 263 250 237 272 228 182 196 177 189 216 201
255 210 197 239 182 210 222 291 234 240 290 309 277 286 304 303 274 255 309 25 20 349 324 310 300 290 283 276 274 270 267 270 277 272 261 257 254 241 243 247 251 257 250 244 232 232 237 187 175 175 193 211 228 234
257 243 211 242 260 255 282 296 303 301 299 282 284 316 292 249 256 11 345 328 315 314 304 293 282 270 269 273 267 261 263 265 251 252 262 252 255 258 244 242 243 246 252 208 222 242 234 198 184 189 191 204 196 188
246 295 314 307 297 286 285 296 301 300 312 355 1 193 234 247 263 333 317 318 318 307 299 297 284 273 268 267 271 273 272 247 245 248 249 258 235 240 247 238 243 239 209 220 228 181 181 179 180 184 196 190 180 202
266 277 289 291 298 300 294 278 259 242 273 328 253 253 255 261 304 314 320 318 313 319 326 332 335 301 286 283 276 271 250 228 242 241 227 234 227 234 222 226 222 225 210 213 208 202 200 198 186 186 187 198 189 207
282 316 310 304 289 269 256 255 279 288 287 290 285 319 310 317 320 337 351 353 349 340 333 326 311 298 287 285 276 256 244 242 236 231 237 220 215 218 212 215 206 211 209 227 215 209 217 194 190 199 214 219 195 185
284 299 276 269 269 273 284 288 288 296 324 26 347 330 328 323 317 346 356 2 4 355 345 339 321 325 316 269 253 254 258 256 262 286 232 220 199 220 201 195 207 226 210 200 209 181 178 172 180 190 179 175 177 182
255 241 286 286 288 296 298 288 213 103 61 27 359 348 339 328 317 330 358 5 9 8 358 346 345 345 2 320 281 260 252 239 254 248 239 238 242 200 200 203 184 203 231 194 173 149 157 172 184 187 174 169 171 175
257 274 265 277 274 276 307 269 131 109 82 32 357 348 354 343 335 347 5 14 4 9 18 60 77 80 69 59 60 49 352 288 261 251 243 220 196 194 191 184 173 161 149 152 156 166 166 168 167 161 166 166 171 172
Wind_Speed_850mb
23 23 24 27 30 30 29 28 27 24 22 20 17 13 11 10 15 22 4 13 6 18 7 8 8 12 18 15 16 9 5 10 11 19 22 23 25 28 27 26 14 19 14 12 10 9 16 11 14 26 14 15 18 22
22 20 17 20 26 28 28 28 27 25 22 20 18 15 12 10 13 17 2 17 19 11 11 10 7 7 2 7 14 9 9 6 15 10 17 17 23 22 23 21 14 1 14 13 16 14 30 29 33 26 41 20 25 18
28 24 19 16 17 23 27 27 26 24 21 20 17 16 14 14 16 21 7 11 4 13 24 28 16 16 15 12 8 9 5 10 3 9 16 9 13 11 16 19 22 19 18 6 7 16 15 29 21 29 23 19 10 24
27 25 22 18 16 19 25 26 26 23 21 19 18 16 15 15 17 20 8 10 5 10 12 9 17 16 12 15 16 16 15 13 14 13 19 12 17 23 18 23 22 26 32 19 19 15 17 18 14 24 26 29 28 29
29 27 27 23 18 16 22 22 22 22 20 19 18 16 15 15 16 19 9 7 6 5 12 3 7 16 17 12 15 16 15 14 17 19 18 15 28 25 29 27 20 30 18 16 20 33 23 30 19 21 22 27 33 40
25 28 27 25 22 19 18 18 18 19 18 18 16 16 16 15 14 10 8 5 5 4 9 6 13 17 17 15 15 17 19 20 24 25 22 31 34 20 11 20 30 30 23 23 26 33 31 32 38 35 37 41 44 48
27 29 28 23 23 21 20 17 15 16 15 14 14 14 16 18 23 10 2 11 12 14 7 9 9 19 21 18 19 20 21 23 21 27 37 37 35 29 20 24 37 37 34 34 39 41 40 39 43 45 45 44 43 44
33 30 26 23 21 20 17 16 15 14 14 13 13 11 13 15 14 9 12 5 12 6 10 8 5 12 23 21 22 24 24 24 18 24 18 22 29 35 18 27 29 29 31 24 22 22 29 31 33 40 43 47 48 50
33 28 29 28 24 20 18 17 17 15 15 16 17 16 18 14 7 7 12 12 11 6 10 12 13 11 22 27 27 23 17 14 24 25 32 20 18 14 13 30 38 29 24 16 26 35 36 34 32 29 33 39 45 48
38 44 30 29 28 23 19 20 19 18 19 22 27 6 9 9 9 3 3 5 8 11 11 11 25 10 21 22 20 7 14 11 11 19 25 21 23 37 36 35 30 21 12 16 22 26 29 32 34 38 39 39 45 50
27 23 45 35 27 20 22 22 20 19 24 20 4 4 3 9 8 5 9 11 13 9 16 26 34 15 12 9 14 21 5 5 14 21 20 13 17 29 57 41 19 4 6 11 16 21 24 29 35 39 46 43 45 49
33 28 33 31 27 27 23 22 24 25 6 7 13 10 11 2 5 7 7 9 11 10 15 25 32 21 6 8 6 3 5 6 11 9 7 16 11 20 16 15 10 8 7 9 15 21 27 33 37 42 47 55 41 48
29 30 31 35 28 25 24 27 27 20 18 16 4 7 7 6 4 9 13 10 8 8 9 17 9 8 8 3 5 6 11 10 15 10 20 14 23 18 16 10 8 5 6 10 18 25 30 35 38 41 48 50 47 49
28 27 25 24 33 30 31 31 24 23 12 5 6 0 6 8 11 12 16 10 14 27 24 26 21 8 14 14 11 9 9 8 13 13 23 16 35 31 22 12 5 4 9 15 20 25 30 34 40 45 49 50 48 45
26 22 31 33 26 34 35 30 33 36 13 9 10 10 14 24 20 4 9 4 2 2 17 23 19 17 16 9 10 10 9 12 10 20 17 24 37 30 20 10 2 4 10 16 21 26 30 37 41 46 49 54 50 45
28 26 23 30 36 31 31 30 36 18 4 7 11 11 19 23 28 16 10 15 4 7 4 10 4 7 12 8 17 19 16 8 3 23 29 31 31 23 16 9 4 4 11 19 22 28 32 39 44 48 51 45 39 39
25 16 27 27 32 29 34 24 18 11 9 7 12 25 14 11 11 15 20 15 18 20 13 5 4 10 12 16 33 10 20 2 16 17 12 19 21 19 13 6 1 8 14 20 26 30 33 37 43 40 43 43 39 27
10 18 29 30 29 30 31 12 8 9 8 17 22 24 24 28 23 16 9 10 23 24 17 7 10 11 10 15 13 9 23 18 7 15 21 19 12 11 8 7 11 16 20 24 30 33 32 35 37 38 38 33 27 30
27 19 29 29 27 20 15 11 7 6 20 16 26 24 21 19 25 27 15 13 21 20 10 11 10 13 19 33 21 21 31 24 22 18 6 12 12 12 13 13 15 21 19 28 39 37 36 22 32 37 33 32 27 32
24 19 31 31 9 2 6 6 8 8 9 11 20 22 26 28 26 27 28 30 29 29 28 18 26 36 35 29 30 30 33 35 37 35 21 28 18 19 19 19 22 24 30 39 41 35 34 35 27 30 37 36 37 31
23 23 20 16 3 4 3 4 8 9 14 14 16 15 21 21 27 28 32 34 41 42 38 45 48 54 53 50 46 45 47 42 41 41 39 36 27 29 27 28 29 29 35 48 45 40 43 23 23 43 41 34 25 31
21 25 14 7 3 3 6 6 6 7 9 16 24 24 22 24 28 34 36 42 46 48 50 51 52 53 53 52 52 53 51 50 48 50 53 53 50 47 47 47 48 51 49 49 42 44 30 28 47 34 18 15 25 31
19 18 5 5 2 4 7 4 5 7 8 9 12 11 13 24 33 33 40 45 53 59 59 62 63 61 59 55 53 52 50 49 53 53 51 50 49 48 47 46 45 49 51 53 54 35 26 34 26 2 17 26 24 26
12 8 5 5 8 7 2 4 5 10 12 18 11 11 18 31 33 37 22 42 45 43 41 40 41 49 53 57 60 58 56 60 63 61 59 55 54 52 49 47 48 48 48 55 39 21 23 21 5 19 20 23 17 15
3 5 7 8 10 5 8 9 17 11 12 14 12 19 10 11 9 21 30 42 29 13 16 20 23 27 32 33 38 43 39 46 45 46 53 61 60 57 55 52 48 47 49 44 32 24 21 10 22 21 28 23 20 22
4 10 8 9 17 10 8 8 2 9 16 16 10 11 13 13 9 12 10 15 12 22 40 48 44 43 45 42 45 47 46 36 31 35 48 49 53 56 52 49 44 46 45 42 37 34 24 30 37 40 35 27 18 20
7 10 16 19 15 12 14 22 29 26 19 9 10 9 5 7 9 2 12 20 45 58 48 50 46 45 47 54 53 50 48 44 48 51 48 40 45 43 52 50 46 44 37 32 37 33 33 45 46 37 39 23 14 17
14 13 17 19 17 21 19 23 12 11 8 7 5 3 6 7 7 19 37 56 47 47 57 60 55 55 56 60 54 51 46 39 39 43 45 44 48 40 50 43 43 34 34 32 23 10 31 47 48 54 28 23 19 20
10 14 21 28 24 24 17 7 7 10 14 6 4 6 8 10 40 49 39 36 39 35 38 37 26 18 19 23 25 36 31 29 40 43 47 47 42 43 43 49 40 34 29 29 28 32 28 30 49 43 33 28 20 21
18 15 16 13 20 11 13 11 20 26 26 27 9 16 24 33 24 27 33 38 41 38 29 26 23 27 30 23 18 20 26 29 28 32 39 31 34 35 34 40 43 35 33 36 37 42 53 54 58 55 43 37 32 24
13 12 11 13 14 22 27 31 30 26 6 6 19 26 29 28 30 32 45 52 50 37 31 27 18 21 21 20 17 18 21 23 12 4 5 10 19 33 29 32 35 28 24 23 22 40 47 56 45 32 29 33 27 24
7 9 9 11 18 25 31 18 5 6 7 9 15 30 33 16 13 28 52 67 69 47 23 21 27 10 9 11 9 17 14 17 18 22 25 15 8 12 17 20 20 13 23 44 47 46 40 36 35 34 32 26 24 21
13 17 17 18 13 12 27 11 3 12 13 7 14 23 23 24 13 31 60 73 70 64 33 21 23 23 21 19 16 13 8 13 17 19 25 24 22 15 18 27 27 39 46 40 36 25 36 33 32 29 28 26 23 26
Wind_Direction_850mb
209 214 221 225 223 220 218 220 223 226 227 232 226 223 232 222 199 189 225 259 192 265 297 341 317 323 307 279 270 24 209 170 256 247 250 257 259 265 275 282 152 181 214 232 224 217 265 69 38 321 5 346 319 326
209 214 217 222 217 213 211 211 216 219 222 226 229 216 210 209 185 169 59 312 228 240 354 286 261 272 357 11 330 299 321 336 3 253 243 260 268 281 295 288 302 134 299 151 181 239 222 234 201 226 252 321 309 304
212 210 214 213 211 207 205 206 210 215 219 224 225 227 208 200 188 179 115 326 302 262 268 246 255 246 238 252 285 296 190 10 38 352 318 305 291 300 270 280 313 320 140 202 199 242 312 226 294 33 26 11 339 303
198 200 203 204 210 206 193 200 208 211 216 223 224 222 222 204 199 200 136 296 314 298 271 158 200 203 252 233 237 248 277 310 310 305 302 290 289 303 293 299 296 295 319 312 303 265 289 273 55 28 17 351 324 327
202 206 201 199 204 210 203 205 205 206 212 220 225 221 213 213 201 197 186 278 293 277 320 131 206 226 212 229 228 232 238 256 264 262 250 259 268 282 284 292 283 295 322 320 315 329 328 335 326 328 325 324 319 309
208 198 196 195 199 198 191 197 202 203 208 215 218 217 209 199 187 159 204 232 236 277 289 261 167 175 208 218 221 216 224 236 239 248 254 257 262 285 268 259 267 270 298 327 334 329 323 317 316 316 310 311 310 312
192 189 189 196 192 192 198 199 196 196 201 204 204 205 200 192 179 225 319 212 210 172 238 253 232 187 206 210 220 217 218 230 236 246 239 250 261 242 247 257 272 291 296 305 305 312 312 309 309 307 307 303 306 306
190 191 194 185 182 184 193 189 186 189 185 177 178 179 181 183 199 224 256 285 185 182 233 258 200 163 186 211 227 208 216 210 223 237 251 244 243 244 254 259 263 271 276 280 285 308 317 313 309 310 314 315 313 311
201 197 196 188 191 183 176 177 173 175 168 153 150 139 131 145 193 181 257 210 181 225 280 220 241 197 168 218 221 185 222 231 228 225 230 244 239 233 242 244 250 250 266 312 314 311 305 303 303 313 317 316 316 319
196 194 197 183 177 173 175 168 160 159 153 146 138 93 170 175 221 181 84 175 212 223 238 260 249 257 192 200 203 227 193 237 261 221 225 227 240 250 247 251 254 271 299 309 303 304 317 320 313 310 307 310 316 316
198 196 181 175 170 177 178 169 161 149 144 140 150 91 135 160 131 211 204 215 198 230 215 225 242 272 188 269 215 203 287 222 253 242 249 224 239 248 224 229 223 142 256 276 287 294 302 306 308 311 308 309 311 319
194 166 166 178 191 193 184 169 158 137 145 159 117 103 120 128 207 188 235 211 220 223 194 207 213 216 66 25 294 59 234 260 253 282 218 237 238 123 132 141 152 186 240 279 295 304 307 309 311 310 308 306 312 315
171 172 183 187 183 182 174 168 160 149 144 139 110 154 182 182 164 213 197 207 201 209 162 165 122 161 113 212 261 262 208 251 284 249 238 229 122 145 141 162 181 227 276 309 307 309 311 312 315 320 317 306 310 313
175 171 173 180 184 185 185 188 177 163 129 137 116 118 235 197 236 206 246 234 258 230 171 167 154 175 211 177 222 224 240 294 249 230 227 231 175 172 163 175 201 288 323 318 321 320 320 325 321 319 317 313 306 309
172 175 186 187 180 178 184 164 175 166 167 182 188 211 216 229 237 329 318 190 207 323 177 181 169 182 193 218 213 233 222 218 221 243 245 203 132 143 156 155 207 316 332 334 329 327 331 331 325 321 317 312 306 301
161 157 161 178 184 178 169 164 174 182 213 217 219 249 244 221 232 219 234 250 193 260 198 109 240 226 209 232 208 207 222 247 309 8 107 122 132 139 145 145 131 347 344 333 330 330 331 336 332 324 317 323 305 296
166 165 172 161 176 178 170 166 180 194 228 219 227 232 249 277 251 261 259 255 220 210 225 212 256 223 285 234 236 237 236 276 355 98 116 122 138 144 146 159 260 335 328 330 330 326 328 336 330 325 330 325 317 318
135 171 174 166 164 161 171 167 184 202 234 238 252 245 247 254 262 254 233 219 223 216 208 245 310 234 240 232 224 330 328 122 282 228 201 157 180 188 219 263 292 306 311 309 315 315 315 331 333 325 329 325 307 311
148 156 173 187 193 160 176 204 204 233 234 242 235 239 229 238 239 242 241 239 234 234 246 229 209 234 240 265 274 294 303 308 355 10 238 195 212 255 264 271 286 297 310 310 304 302 309 320 327 319 311 307 290 302
128 128 150 144 116 118 175 176 201 248 271 242 238 230 235 239 237 232 234 239 240 233 233 242 257 259 271 280 286 287 280 282 273 272 277 288 257 255 264 275 279 301 309 302 300 300 308 312 316 315 309 293 291 272
127 140 145 148 224 274 284 210 216 265 308 294 282 248 244 243 230 237 241 231 227 239 249 247 250 255 263 268 269 275 284 289 286 289 293 292 289 279 274 280 296 291 292 293 298 303 306 320 317 318 309 297 269 231
155 149 146 171 331 275 272 250 263 289 272 271 282 263 252 252 252 243 235 228 234 239 238 244 250 254 256 255 254 254 257 261 267 270 274 277 276 272 271 272 276 277 279 284 289 298 306 305 322 321 300 238 187 164
155 162 150 189 280 274 273 295 287 275 268 279 280 270 264 265 261 255 249 244 242 241 238 236 240 242 247 257 260 259 260 263 262 258 258 260 263 265 268 269 271 274 274 272 277 287 289 323 339 348 161 145 143 144
111 153 209 211 220 253 200 198 225 279 278 281 274 279 290 290 287 283 274 269 265 266 261 259 256 254 253 249 249 250 250 246 245 249 252 256 255 256 259 263 265 268 271 274 270 257 285 326 203 159 154 157 181 197
239 204 187 225 231 217 239 232 201 215 255 268 293 283 271 292 281 282 277 276 288 326 355 326 299 288 293 289 279 269 258 250 255 266 256 241 243 249 254 258 261 262 263 263 250 237 272 228 182 196 177 189 216 201
255 210 197 239 182 210 222 291 234 240 290 309 277 286 304 303 274 255 309 25 20 349 324 310 300 290 283 276 274 270 267 270 277 272 261 257 254 241 243 247 251 257 250 244 232 232 237 187 175 175 193 211 228 234
257 243 211 242 260 255 282 296 303 301 299 282 284 316 292 249 256 11 345 328 315 314 304 293 282 270 269 273 267 261 263 265 251 252 262 252 255 258 244 242 243 246 252 208 222 242 234 198 184 189 191 204 196 188
246 295 314 307 297 286 285 296 301 300 312 355 1 193 234 247 263 333 317 318 318 307 299 297 284 273 268 267 271 273 272 247 245 248 249 258 235 240 247 238 243 239 209 220 228 181 181 179 180 184 196 190 180 202
266 277 289 291 298 300 294 278 259 242 273 328 253 253 255 261 304 314 320 318 313 319 326 332 335 301 286 283 276 271 250 228 242 241 227 234 227 234 222 226 222 225 210 213 208 202 200 198 186 186 187 198 189 207
282 316 310 304 289 269 256 255 279 288 287 290 285 319 310 317 320 337 351 353 349 340 333 326 311 298 287 285 276 256 244 242 236 231 237 220 215 218 212 215 206 211 209 227 215 209 217 194 190 199 214 219 195 185
284 299 276 269 269 273 284 288 288 296 324 26 347 330 328 323 317 346 356 2 4 355 345 339 321 325 316 269 253 254 258 256 262 286 232 220 199 220 201 195 207 226 210 200 209 181 178 172 180 190 179 175 177 182
255 241 286 286 288 296 298 288 213 103 61 27 359 348 339 328 317 330 358 5 9 8 358 346 345 345 2 320 281 260 252 239 254 248 239 238 242 200 200 203 184 203 231 194 173 149 157 172 184 187 174 169 171 175
257 274 265 277 274 276 307 269 131 109 82 32 357 348 354 343 335 347 5 14 4 9 18 60 77 80 69 59 60 49 352 288 261 251 243 220 196 194 191 184 173 161 149 152 156 166 166 168 167 161 166 166 171 172